VIV8703 MMVA-MMMD

Flight info

Callsign VIV8703
Flight time 0h 46m
Altitude 32000
Route MMVA/08 N0427F290 AGAVE3 VSA UJ9 CPE UJ16W ILELA ILEL1A MMMD/10
Aircraft A320/M-VGDW/C

Departure

Time 2026-05-04 16:49
Airport Carlos Rovirosa Pérez International Airport (MMVA)

Arrival

Time 2026-05-04 17:35
Airport Manuel Crescencio Rejón International Airport (MMMD)
Time Latitude Longitude Altitude Speed Heading
2026-05-04 16:37 17.99365 -92.81810 51 ft 0 kts 177°
2026-05-04 16:41 17.99363 -92.81810 51 ft 1 kts 176°
2026-05-04 16:42 17.99408 -92.81811 51 ft 2 kts 207°
2026-05-04 16:43 17.99421 -92.81791 51 ft 1 kts 273°
2026-05-04 16:43 17.99420 -92.81786 51 ft 0 kts 267°
2026-05-04 16:46 17.99412 -92.81950 48 ft 13 kts 267°
2026-05-04 16:46 17.99534 -92.82110 45 ft 19 kts 296°
2026-05-04 16:47 17.99648 -92.82383 40 ft 19 kts 272°
2026-05-04 16:47 17.99619 -92.82660 38 ft 12 kts 220°
2026-05-04 16:48 17.99645 -92.82486 38 ft 56 kts 86°
2026-05-04 16:48 17.99683 -92.81832 48 ft 121 kts 86°
2026-05-04 16:49 17.99801 -92.79652 765 ft 153 kts 87°
2026-05-04 16:49 17.99871 -92.77464 1696 ft 154 kts 86°
2026-05-04 16:50 18.00028 -92.75016 2267 ft 183 kts 85°
2026-05-04 16:50 18.00208 -92.72095 2822 ft 222 kts 86°
2026-05-04 16:51 18.00415 -92.68623 3615 ft 256 kts 82°
2026-05-04 16:51 18.01074 -92.66853 4181 ft 266 kts 49°
2026-05-04 16:51 18.04453 -92.65680 5716 ft 274 kts 356°
2026-05-04 16:52 18.08320 -92.66148 7077 ft 282 kts
2026-05-04 16:52 18.10151 -92.65516 7825 ft 279 kts 33°
2026-05-04 16:53 18.12631 -92.62466 9162 ft 283 kts 56°
2026-05-04 16:53 18.16041 -92.57150 10663 ft 307 kts 55°
2026-05-04 16:54 18.17266 -92.55260 10936 ft 323 kts 55°
2026-05-04 16:55 18.22754 -92.46808 12408 ft 365 kts 54°
2026-05-04 16:55 18.25660 -92.42386 13493 ft 371 kts 54°
2026-05-04 16:56 18.28630 -92.37908 14562 ft 377 kts 54°
2026-05-04 16:56 18.33156 -92.31037 16068 ft 384 kts 55°
2026-05-04 16:57 18.34667 -92.28735 16538 ft 387 kts 55°
2026-05-04 16:57 18.37769 -92.24016 17458 ft 393 kts 55°
2026-05-04 16:58 18.42459 -92.16877 18757 ft 401 kts 54°
2026-05-04 16:58 18.44063 -92.14423 19174 ft 404 kts 54°
2026-05-04 16:59 18.47235 -92.09549 20022 ft 407 kts 53°
2026-05-04 17:00 18.53706 -91.99590 21581 ft 417 kts 53°
2026-05-04 17:00 18.58660 -91.91956 22670 ft 424 kts 52°
2026-05-04 17:01 18.62006 -91.86797 23410 ft 428 kts 52°
2026-05-04 17:01 18.65449 -91.81661 24120 ft 431 kts 49°
2026-05-04 17:02 18.69386 -91.76858 24824 ft 432 kts 43°
2026-05-04 17:02 18.73555 -91.72252 25470 ft 437 kts 43°
2026-05-04 17:03 18.75655 -91.69938 25786 ft 439 kts 43°
2026-05-04 17:03 18.77758 -91.67613 26142 ft 439 kts 43°
2026-05-04 17:03 18.81959 -91.62961 27066 ft 436 kts 43°
2026-05-04 17:04 18.86130 -91.58337 27918 ft 434 kts 42°
2026-05-04 17:04 18.90282 -91.53728 28790 ft 431 kts 42°
2026-05-04 17:05 18.94406 -91.49155 29524 ft 431 kts 42°
2026-05-04 17:05 18.98566 -91.44576 30123 ft 435 kts 42°
2026-05-04 17:06 19.02768 -91.39957 30702 ft 438 kts 42°
2026-05-04 17:06 19.04899 -91.37610 30929 ft 442 kts 42°
2026-05-04 17:07 19.09160 -91.32903 31445 ft 446 kts 43°
2026-05-04 17:07 19.10609 -91.31294 31601 ft 448 kts 43°
2026-05-04 17:07 19.13495 -91.28108 31895 ft 451 kts 43°
2026-05-04 17:07 19.15682 -91.25698 31936 ft 453 kts 43°
2026-05-04 17:08 19.22217 -91.18477 31946 ft 453 kts 43°
2026-05-04 17:09 19.26557 -91.13666 31952 ft 453 kts 43°
2026-05-04 17:09 19.30928 -91.08810 31950 ft 453 kts 43°
2026-05-04 17:10 19.41752 -90.96748 31950 ft 451 kts 43°
2026-05-04 17:11 19.46057 -90.91946 31950 ft 452 kts 43°
2026-05-04 17:12 19.52546 -90.84699 31956 ft 452 kts 43°
2026-05-04 17:13 19.63327 -90.72630 31969 ft 449 kts 43°
2026-05-04 17:14 19.71915 -90.62997 31552 ft 449 kts 42°
2026-05-04 17:14 19.76264 -90.58118 29796 ft 456 kts 43°
2026-05-04 17:15 19.78418 -90.55693 29148 ft 453 kts 42°
2026-05-04 17:15 19.83169 -90.51477 27602 ft 441 kts 24°
2026-05-04 17:16 19.88939 -90.49717 26053 ft 431 kts
2026-05-04 17:16 19.97806 -90.48667 24124 ft 424 kts
2026-05-04 17:17 20.00739 -90.48322 23519 ft 421 kts
2026-05-04 17:17 20.09410 -90.47282 21813 ft 412 kts
2026-05-04 17:18 20.12242 -90.46944 21263 ft 410 kts
2026-05-04 17:18 20.17888 -90.46268 20237 ft 404 kts
2026-05-04 17:19 20.23412 -90.45606 19216 ft 398 kts
2026-05-04 17:19 20.28900 -90.44943 18200 ft 392 kts
2026-05-04 17:20 20.34292 -90.44291 17216 ft 387 kts
2026-05-04 17:20 20.39596 -90.43645 16350 ft 379 kts
2026-05-04 17:20 20.42184 -90.43330 16231 ft 365 kts
2026-05-04 17:21 20.47073 -90.42736 16032 ft 338 kts
2026-05-04 17:21 20.51422 -90.41614 15978 ft 314 kts 31°
2026-05-04 17:22 20.52991 -90.40008 15521 ft 321 kts 51°
2026-05-04 17:22 20.54304 -90.38046 15016 ft 324 kts 52°
2026-05-04 17:23 20.58245 -90.32132 13701 ft 326 kts 52°
2026-05-04 17:23 20.59567 -90.30173 13269 ft 326 kts 52°
2026-05-04 17:23 20.62223 -90.26268 12438 ft 325 kts 52°
2026-05-04 17:24 20.63547 -90.24329 12057 ft 323 kts 52°
2026-05-04 17:24 20.67473 -90.18582 10928 ft 317 kts 53°
2026-05-04 17:25 20.68768 -90.16684 10570 ft 315 kts 53°
2026-05-04 17:25 20.71348 -90.12905 9797 ft 312 kts 53°
2026-05-04 17:26 20.73895 -90.09175 8974 ft 305 kts 53°
2026-05-04 17:26 20.77436 -90.03981 7822 ft 277 kts 53°
2026-05-04 17:27 20.79674 -90.00700 7091 ft 273 kts 54°
2026-05-04 17:27 20.81905 -89.97427 6378 ft 272 kts 55°
2026-05-04 17:28 20.84120 -89.94167 5642 ft 271 kts 55°
2026-05-04 17:29 20.87434 -89.89284 4561 ft 268 kts 55°
2026-05-04 17:29 20.91127 -89.85038 3623 ft 251 kts 19°
2026-05-04 17:30 20.96159 -89.83629 2942 ft 240 kts 19°
2026-05-04 17:31 20.98012 -89.81188 2592 ft 217 kts 96°
2026-05-04 17:31 20.96584 -89.76942 2055 ft 191 kts 106°
2026-05-04 17:32 20.95888 -89.74316 1576 ft 176 kts 103°
2026-05-04 17:33 20.95019 -89.70903 963 ft 144 kts 104°
2026-05-04 17:33 20.94757 -89.69879 798 ft 142 kts 104°
2026-05-04 17:34 20.93974 -89.66828 272 ft 140 kts 104°
2026-05-04 17:34 20.93721 -89.65817 90 ft 140 kts 104°
2026-05-04 17:35 20.93274 -89.64284 45 ft 10 kts 236°
2026-05-04 17:35 20.93147 -89.64369 44 ft 11 kts 271°
2026-05-04 17:35 20.93167 -89.64456 44 ft 12 kts 286°
2026-05-04 17:36 20.93191 -89.64547 44 ft 13 kts 286°
2026-05-04 17:36 20.93218 -89.64644 44 ft 13 kts 285°
2026-05-04 17:36 20.93243 -89.64745 44 ft 14 kts 285°
2026-05-04 17:36 20.93269 -89.64849 44 ft 14 kts 285°
2026-05-04 17:37 20.93296 -89.64955 44 ft 15 kts 284°
2026-05-04 17:37 20.93323 -89.65065 44 ft 15 kts 284°
2026-05-04 17:37 20.93351 -89.65177 44 ft 15 kts 284°
2026-05-04 17:37 20.93383 -89.65297 44 ft 17 kts 286°
2026-05-04 17:38 20.93414 -89.65415 44 ft 17 kts 285°
2026-05-04 17:38 20.93448 -89.65546 44 ft 17 kts 285°
2026-05-04 17:38 20.93480 -89.65671 44 ft 17 kts 285°
2026-05-04 17:38 20.93512 -89.65794 44 ft 17 kts 287°
2026-05-04 17:39 20.93549 -89.66041 44 ft 16 kts 268°
2026-05-04 17:39 20.93546 -89.66149 45 ft 11 kts 249°
2026-05-04 17:39 20.93520 -89.66190 44 ft 0 kts 232°